This demonstration page uses our WeatherBlox Daily Observations layout. Learn more.

36.17497, -115.13722

Hourly Observations for July 7, 2015

Temp ( °F °C ) Dew Point ( °F °C ) Humidity (%) Winds ( mph kmh ) Pressure ( in mb ) Visibility ( mi km ) Precip ( " mm )
12:53 am 00:53 Clear 79 26.1 66 18.9 65 65 E 3 6 29.92 1013 10 16.0934 0 0
1:53 am 01:53 Clear 81 27.2 63 17.2 54 54 N 7 11 29.91 1013 10 16.0934 0 0
2:53 am 02:53 Clear 80 26.7 61 16.1 52 52 NNE 5 7 29.88 1012 10 16.0934 0 0
3:53 am 03:53 Clear 79 26.1 63 17.2 58 58 S 7 11 29.89 1012 10 16.0934 0 0
4:53 am 04:53 Mostly Clear 79 26.1 61 16.1 54 54 SW 7 11 29.9 1013 10 16.0934 0 0
5:53 am 05:53 Mostly Cloudy 79 26.1 61 16.1 54 54 Calm 29.92 1013 10 16.0934 0 0
6:53 am 06:53 Partly Cloudy with Light Rain 77 25 61 16.1 58 58 N 9 15 29.95 1014 10 16.0934 0 0.0254
7:53 am 07:53 Sunny 77 25 62 16.7 60 60 N 5 7 29.97 1015 10 16.0934 0 0.0254
8:53 am 08:53 Sunny 82 27.8 60 15.6 47 47 Calm 29.96 1015 10 16.0934 0 0
9:53 am 09:53 Sunny 87 30.6 57 13.9 36 36 E 5 7 29.94 1014 10 16.0934 0 0
10:53 am 10:53 Sunny 90 32.2 57 13.9 33 33 E 3 6 29.93 1013 10 16.0934 0 0
11:53 am 11:53 Sunny 92 33.3 53 11.7 27 27 VRB 7 11 29.91 1013 10 16.0934 0 0
12:53 pm 12:53 Sunny 94 34.4 52 11.1 24 24 SE 8 13 29.87 1011 10 16.0934 0 0
1:53 pm 13:53 Sunny 96 35.6 51 10.6 22 22 S 7 11 29.83 1010 10 16.0934 0 0
2:53 pm 14:53 Sunny 96 35.6 51 10.6 22 22 WSW 6 9 29.8 1009 10 16.0934 0 0
3:53 pm 15:53 Sunny 97 36.1 51 10.6 21 21 S 14 22 29.76 1008 10 16.0934 0 0
4:53 pm 16:53 Sunny 97 36.1 49 9.4 20 20 VRB 6 9 29.74 1007 10 16.0934 0 0
5:53 pm 17:53 Sunny 98 36.7 48 8.9 18 18 SW 7 11 29.72 1006 10 16.0934 0 0
6:33 pm 18:33 Mostly Sunny 96 35.6 50 10 21 21 S 12 19 29.53 1000 10 16.0934 0 0
6:53 pm 18:53 Sunny 96 35.6 51 10.6 22 22 SSW 10 17 29.72 1006 10 16.0934 0 0
7:53 pm 19:53 Sunny 95 35 50 10 22 22 SSW 7 11 29.72 1007 10 16.0934 0 0
8:53 pm 20:53 Clear 94 34.4 49 9.4 21 21 WSW 5 7 29.72 1006 10 16.0934 0 0
9:53 pm 21:53 Clear 94 34.4 50 10 22 22 NW 5 7 29.73 1007 10 16.0934 0 0
10:53 pm 22:53 Mostly Clear 91 32.8 50 10 25 25 N 9 15 29.72 1007 10 16.0934 0 0.0254
11:53 pm 23:53 Clear 89 31.7 49 9.4 25 25 N 8 13 29.71 1006 10 16.0934 0 0

Powered by AerisWeather